TimeCST,TemperatureF,Dew PointF,Humidity,Sea Level PressureIn,VisibilityMPH,Wind Direction,Wind SpeedMPH,Gust SpeedMPH,PrecipitationIn,Events,Conditions,WindDirDegrees,DateUTC
12:52 AM,37.0,32.0,82,29.64,10.0,SSE,4.6,-,0.00,,Overcast,150,2013-12-02 06:52:00
1:52 AM,37.0,32.0,82,29.61,10.0,ENE,5.8,-,N/A,,Overcast,70,2013-12-02 07:52:00
2:52 AM,35.1,32.0,89,29.62,10.0,West,6.9,-,N/A,,Overcast,260,2013-12-02 08:52:00
3:52 AM,35.1,32.0,89,29.59,10.0,East,3.5,-,0.01,Rain,Light Rain,100,2013-12-02 09:52:00
4:52 AM,35.1,32.0,89,29.56,10.0,SSE,6.9,-,0.00,,Overcast,150,2013-12-02 10:52:00
5:52 AM,33.1,30.0,89,29.54,10.0,East,6.9,-,0.00,,Overcast,100,2013-12-02 11:52:00
6:52 AM,30.9,30.0,96,29.53,10.0,SSE,5.8,-,N/A,,Mostly Cloudy,160,2013-12-02 12:52:00
7:52 AM,30.0,28.0,92,29.53,10.0,SSE,4.6,-,N/A,,Clear,150,2013-12-02 13:52:00
8:52 AM,30.9,30.0,96,29.52,10.0,SE,4.6,-,N/A,,Clear,140,2013-12-02 14:52:00
9:52 AM,35.1,32.0,89,29.52,10.0,Calm,Calm,-,N/A,,Clear,0,2013-12-02 15:52:00
10:52 AM,39.9,34.0,79,29.51,10.0,NNW,3.5,-,N/A,,Clear,330,2013-12-02 16:52:00
11:52 AM,43.0,36.0,76,29.50,10.0,NW,11.5,-,N/A,,Clear,310,2013-12-02 17:52:00
12:32 PM,44.6,37.4,76,29.47,10.0,NNW,12.7,-,N/A,,Mostly Cloudy,330,2013-12-02 18:32:00
12:47 PM,44.6,37.4,76,29.48,10.0,NW,15.0,-,N/A,,Scattered Clouds,320,2013-12-02 18:47:00
12:52 PM,44.1,37.0,76,29.51,10.0,NW,15.0,-,N/A,,Scattered Clouds,320,2013-12-02 18:52:00
1:01 PM,42.8,37.4,81,29.48,10.0,NW,10.4,-,N/A,,Mostly Cloudy,320,2013-12-02 19:01:00
1:52 PM,41.0,36.0,82,29.50,10.0,NNW,11.5,-,N/A,,Overcast,330,2013-12-02 19:52:00
2:52 PM,39.9,34.0,79,29.50,10.0,North,16.1,-,N/A,,Overcast,350,2013-12-02 20:52:00
3:19 PM,35.6,32.0,87,29.49,10.0,North,16.1,-,N/A,,Overcast,360,2013-12-02 21:19:00
3:42 PM,33.8,30.2,87,29.51,5.0,North,18.4,-,N/A,,Overcast,350,2013-12-02 21:42:00
3:52 PM,33.1,30.9,92,29.56,9.0,NNW,16.1,-,N/A,,Overcast,340,2013-12-02 21:52:00
4:05 PM,33.8,30.2,87,29.53,9.0,NNW,15.0,-,N/A,,Overcast,330,2013-12-02 22:05:00
4:16 PM,32.0,30.2,93,29.52,8.0,NNW,15.0,-,N/A,,Overcast,330,2013-12-02 22:16:00
4:52 PM,30.9,28.9,92,29.59,6.0,NNW,15.0,-,N/A,,Overcast,340,2013-12-02 22:52:00
5:06 PM,30.2,28.4,93,29.54,6.0,NNW,13.8,-,N/A,,Overcast,340,2013-12-02 23:06:00
5:52 PM,30.0,28.9,96,29.62,6.0,North,15.0,-,N/A,,Overcast,360,2013-12-02 23:52:00
6:29 PM,30.2,28.4,93,29.58,9.0,North,16.1,-,N/A,,Overcast,10,2013-12-03 00:29:00
6:52 PM,28.9,26.1,89,29.64,8.0,NNE,10.4,20.7,N/A,,Overcast,20,2013-12-03 00:52:00
7:21 PM,28.4,24.8,86,29.59,9.0,NNE,11.5,-,N/A,,Overcast,30,2013-12-03 01:21:00
7:52 PM,27.0,24.1,89,29.67,8.0,NNE,11.5,-,N/A,,Overcast,30,2013-12-03 01:52:00
8:52 PM,26.1,21.9,84,29.68,9.0,NNE,12.7,-,N/A,,Overcast,30,2013-12-03 02:52:00
9:52 PM,24.1,19.9,84,29.70,10.0,NNE,9.2,-,N/A,,Overcast,20,2013-12-03 03:52:00
10:52 PM,23.0,19.0,85,29.70,10.0,NNE,15.0,-,N/A,,Overcast,30,2013-12-03 04:52:00
11:52 PM,23.0,19.9,88,29.73,10.0,North,15.0,19.6,N/A,,Overcast,10,2013-12-03 05:52:00